TimeEDT,TemperatureF,Dew PointF,Humidity,Sea Level PressureIn,VisibilityMPH,Wind Direction,Wind SpeedMPH,Gust SpeedMPH,PrecipitationIn,Events,Conditions,WindDirDegrees,DateUTC
12:15 AM,76.5,64.8,67,30.11,10.0,WSW,8.1,-,N/A,,Clear,240,2013-09-11 04:15:00
12:35 AM,76.6,64.8,67,30.11,7.0,SW,6.9,-,N/A,,Clear,230,2013-09-11 04:35:00
12:55 AM,75.4,64.8,69,30.11,10.0,WSW,5.8,-,N/A,,Clear,250,2013-09-11 04:55:00
1:15 AM,74.7,64.8,71,30.11,7.0,South,5.8,-,N/A,,Clear,180,2013-09-11 05:15:00
1:35 AM,73.8,64.8,73,30.11,7.0,SSW,5.8,-,N/A,,Clear,200,2013-09-11 05:35:00
1:55 AM,73.0,65.3,77,30.11,7.0,South,6.9,-,N/A,,Clear,190,2013-09-11 05:55:00
2:15 AM,72.5,65.7,79,30.11,10.0,South,4.6,-,N/A,,Clear,190,2013-09-11 06:15:00
2:55 AM,71.8,65.8,81,30.11,7.0,SSW,3.5,-,N/A,,Clear,200,2013-09-11 06:55:00
3:15 AM,70.7,66.2,86,30.11,7.0,SSW,4.6,-,N/A,,Clear,210,2013-09-11 07:15:00
3:35 AM,70.7,66.4,86,30.11,7.0,SSW,5.8,-,N/A,,Clear,210,2013-09-11 07:35:00
3:55 AM,71.4,66.6,85,30.10,7.0,SSW,4.6,-,N/A,,Clear,210,2013-09-11 07:55:00
4:15 AM,71.6,66.6,84,30.10,7.0,SSW,5.8,-,N/A,,Clear,210,2013-09-11 08:15:00
4:35 AM,71.8,66.6,84,30.11,7.0,SW,6.9,-,N/A,,Clear,220,2013-09-11 08:35:00
4:55 AM,71.8,66.6,84,30.11,7.0,WSW,4.6,-,N/A,,Clear,240,2013-09-11 08:55:00
5:15 AM,72.3,66.6,82,30.10,10.0,WSW,6.9,-,N/A,,Clear,240,2013-09-11 09:15:00
5:35 AM,72.9,66.2,80,30.11,10.0,SW,6.9,-,N/A,,Clear,230,2013-09-11 09:35:00
5:55 AM,72.7,66.2,80,30.11,10.0,SSW,3.5,-,N/A,,Clear,200,2013-09-11 09:55:00
6:15 AM,71.2,66.2,84,30.11,7.0,South,4.6,-,N/A,,Clear,190,2013-09-11 10:15:00
6:35 AM,70.7,66.6,87,30.11,7.0,South,3.5,-,N/A,,Clear,190,2013-09-11 10:35:00
6:55 AM,70.9,66.7,87,30.11,10.0,South,4.6,-,N/A,,Clear,190,2013-09-11 10:55:00
7:15 AM,70.7,67.1,88,30.12,7.0,SSW,3.5,-,N/A,,Clear,210,2013-09-11 11:15:00
7:35 AM,70.5,67.3,89,30.12,4.0,SSW,4.6,-,N/A,,Clear,210,2013-09-11 11:35:00
7:55 AM,70.2,67.5,91,30.13,4.0,SSW,4.6,-,N/A,,Clear,200,2013-09-11 11:55:00
8:15 AM,70.5,67.8,91,30.13,3.0,SSW,4.6,-,N/A,,Clear,200,2013-09-11 12:15:00
8:35 AM,71.1,68.4,91,30.14,4.0,SSW,4.6,-,N/A,,Clear,200,2013-09-11 12:35:00
8:55 AM,71.6,68.9,91,30.14,4.0,SW,3.5,-,N/A,,Clear,220,2013-09-11 12:55:00
9:15 AM,73.8,69.6,87,30.14,7.0,SW,6.9,-,N/A,,Clear,220,2013-09-11 13:15:00
9:35 AM,76.3,69.6,80,30.14,7.0,WSW,6.9,-,N/A,,Clear,240,2013-09-11 13:35:00
9:55 AM,78.1,68.9,73,30.14,10.0,WSW,8.1,-,N/A,,Clear,250,2013-09-11 13:55:00
10:15 AM,80.2,68.5,67,30.14,10.0,SW,8.1,-,N/A,,Clear,230,2013-09-11 14:15:00
10:35 AM,81.5,67.8,63,30.13,10.0,WSW,8.1,-,N/A,,Clear,240,2013-09-11 14:35:00
10:55 AM,82.9,67.5,59,30.13,10.0,SW,9.2,-,N/A,,Clear,230,2013-09-11 14:55:00
11:15 AM,84.4,67.1,56,30.12,7.0,WSW,9.2,-,N/A,,Clear,250,2013-09-11 15:15:00
11:35 AM,86.2,66.2,51,30.12,10.0,WSW,8.1,-,N/A,,Clear,240,2013-09-11 15:35:00
11:55 AM,87.4,65.5,48,30.11,7.0,WSW,6.9,-,N/A,,Clear,250,2013-09-11 15:55:00
12:15 PM,88.5,64.8,45,30.11,7.0,West,8.1,-,N/A,,Clear,260,2013-09-11 16:15:00
12:35 PM,89.8,64.2,43,30.10,10.0,WSW,4.6,-,N/A,,Clear,250,2013-09-11 16:35:00
12:55 PM,90.5,63.1,40,30.10,7.0,West,5.8,-,N/A,,Clear,270,2013-09-11 16:55:00
1:15 PM,91.2,62.1,38,30.09,7.0,WSW,8.1,-,N/A,,Clear,250,2013-09-11 17:15:00
1:35 PM,91.9,60.4,35,30.08,10.0,WSW,10.4,-,N/A,,Scattered Clouds,240,2013-09-11 17:35:00
1:55 PM,92.7,59.4,33,30.08,7.0,SW,10.4,20.7,N/A,,Scattered Clouds,230,2013-09-11 17:55:00
2:15 PM,93.2,58.5,31,30.08,7.0,West,12.7,18.4,N/A,,Scattered Clouds,260,2013-09-11 18:15:00
2:35 PM,93.6,57.7,30,30.07,7.0,West,8.1,20.7,N/A,,Scattered Clouds,260,2013-09-11 18:35:00
2:55 PM,93.4,57.2,30,30.06,7.0,West,11.5,-,N/A,,Clear,270,2013-09-11 18:55:00
3:15 PM,93.6,57.7,30,30.05,7.0,WSW,6.9,-,N/A,,Scattered Clouds,250,2013-09-11 19:15:00
3:35 PM,93.9,57.2,29,30.05,7.0,West,12.7,-,N/A,,Scattered Clouds,260,2013-09-11 19:35:00
3:55 PM,93.9,57.4,29,30.04,7.0,WSW,10.4,18.4,N/A,,Clear,250,2013-09-11 19:55:00
4:15 PM,93.7,56.8,29,30.03,7.0,WSW,10.4,21.9,N/A,,Scattered Clouds,250,2013-09-11 20:15:00
4:35 PM,93.6,57.4,30,30.02,7.0,West,11.5,17.3,N/A,,Clear,260,2013-09-11 20:35:00
4:55 PM,93.4,57.4,30,30.02,7.0,WSW,13.8,-,N/A,,Clear,250,2013-09-11 20:55:00
5:15 PM,93.0,57.6,30,30.01,5.0,WSW,11.5,21.9,N/A,,Haze,250,2013-09-11 21:15:00
5:35 PM,92.5,57.4,31,30.01,7.0,West,13.8,18.4,N/A,,Clear,270,2013-09-11 21:35:00
5:55 PM,92.1,57.2,31,30.01,7.0,WSW,13.8,20.7,N/A,,Clear,250,2013-09-11 21:55:00
6:15 PM,91.6,56.7,31,30.01,7.0,WSW,11.5,20.7,N/A,,Clear,250,2013-09-11 22:15:00
6:35 PM,90.7,56.7,32,30.01,7.0,West,10.4,21.9,N/A,,Clear,260,2013-09-11 22:35:00
6:55 PM,89.6,56.7,33,30.01,7.0,WSW,9.2,-,N/A,,Clear,250,2013-09-11 22:55:00
7:15 PM,88.5,56.8,34,30.01,7.0,WSW,9.2,-,N/A,,Clear,250,2013-09-11 23:15:00
7:35 PM,86.9,57.0,36,30.01,5.0,WSW,8.1,-,N/A,,Haze,250,2013-09-11 23:35:00
7:55 PM,84.9,57.0,38,30.01,7.0,SW,5.8,-,N/A,,Clear,230,2013-09-11 23:55:00
8:15 PM,81.7,58.3,45,30.02,10.0,WSW,8.1,-,N/A,,Clear,240,2013-09-12 00:15:00
8:35 PM,80.2,58.1,47,30.02,7.0,WSW,8.1,-,N/A,,Clear,240,2013-09-12 00:35:00
8:55 PM,79.9,57.6,46,30.02,10.0,WSW,5.8,-,N/A,,Clear,240,2013-09-12 00:55:00
9:15 PM,77.7,58.3,51,30.03,10.0,WSW,8.1,-,N/A,,Scattered Clouds,240,2013-09-12 01:15:00
9:35 PM,77.5,58.1,51,30.03,10.0,SW,6.9,-,N/A,,Scattered Clouds,230,2013-09-12 01:35:00
9:55 PM,77.2,58.1,52,30.03,10.0,SW,8.1,-,N/A,,Scattered Clouds,230,2013-09-12 01:55:00
10:15 PM,76.8,58.3,53,30.04,7.0,NW,8.1,-,N/A,,Scattered Clouds,320,2013-09-12 02:15:00
10:35 PM,76.8,58.3,53,30.04,10.0,West,5.8,-,N/A,,Clear,260,2013-09-12 02:35:00
10:55 PM,74.3,59.2,59,30.04,10.0,West,3.5,-,N/A,,Clear,280,2013-09-12 02:55:00
11:15 PM,72.1,60.1,66,30.04,10.0,West,3.5,-,N/A,,Clear,260,2013-09-12 03:15:00
11:35 PM,70.5,60.4,70,30.03,7.0,West,4.6,-,N/A,,Clear,280,2013-09-12 03:35:00
11:55 PM,70.3,60.4,71,30.02,10.0,WNW,3.5,-,N/A,,Clear,300,2013-09-12 03:55:00